When you browse on this site, cookies collect data to enhance your experience and personalize the content and advertising you see.
Visit our Privacy Policy to learn more. By continuing to use the site, you agree to this use of cookies and data.
  • In Hungary
  • List of Countries
  • For 7 days
  • Water Temperature
  • Satellite Maps
  • Weather Map
  • News
  • Weather Widgets
  • user-avatar
    Login

    Hourly Weather Alghero

    Today, 13 December, Thursday

    Time Temperature Precipitation Wind Pressure Humidity
    00:00 +10°C° 0 mm 3 mps 760 mmHg 82%
    01:00 +10°C° 0 mm 3 mps 760 mmHg 82%
    02:00 +10°C° 0 mm 3 mps 759 mmHg 84%
    03:00 +9°C° 0 mm 3 mps 759 mmHg 85%
    04:00 +9°C° 0 mm 3 mps 759 mmHg 87%
    05:00 +9°C° 0.1 mm 3 mps 758 mmHg 87%
    06:00 +9°C° 0.1 mm 3 mps 758 mmHg 86%
    07:00 +10°C° 0.1 mm 3 mps 758 mmHg 86%
    08:00 +10°C° 0.3 mm 3 mps 758 mmHg 86%
    09:00 +11°C° 0.3 mm 3 mps 758 mmHg 85%
    10:00 +11°C° 0.3 mm 3 mps 757 mmHg 85%
    11:00 +12°C° 0.4 mm 4 mps 757 mmHg 84%
    12:00 +12°C° 0.4 mm 5 mps 756 mmHg 84%
    13:00 +13°C° 0.4 mm 5 mps 756 mmHg 83%
    14:00 +13°C° 0.8 mm 5 mps 755 mmHg 86%
    15:00 +13°C° 0.8 mm 4 mps 755 mmHg 89%
    16:00 +13°C° 0.8 mm 4 mps 754 mmHg 92%
    17:00 +12°C° 0.6 mm 4 mps 754 mmHg 93%
    18:00 +12°C° 0.6 mm 4 mps 754 mmHg 94%
    19:00 +12°C° 0.6 mm 4 mps 754 mmHg 95%
    20:00 +12°C° 0.4 mm 4 mps 754 mmHg 95%
    21:00 +12°C° 0.4 mm 4 mps 754 mmHg 95%
    22:00 +12°C° 0.4 mm 4 mps 753 mmHg 95%
    23:00 +12°C° 0.8 mm 4 mps 753 mmHg 95%

    Tomorrow, 14 December, Friday

    Time Temperature Precipitation Wind Pressure Humidity
    00:00 +12°C° 0.8 mm 5 mps 753 mmHg 95%
    01:00 +12°C° 0.8 mm 5 mps 753 mmHg 94%
    02:00 +12°C° 1.4 mm 5 mps 753 mmHg 94%
    03:00 +11°C° 1.4 mm 6 mps 752 mmHg 94%
    04:00 +11°C° 1.4 mm 6 mps 752 mmHg 94%
    05:00 +11°C° 1.2 mm 6 mps 752 mmHg 94%
    06:00 +11°C° 1.2 mm 6 mps 752 mmHg 94%
    07:00 +11°C° 1.2 mm 6 mps 752 mmHg 94%
    08:00 +11°C° 0.7 mm 6 mps 753 mmHg 92%
    09:00 +11°C° 0.7 mm 6 mps 753 mmHg 91%
    10:00 +11°C° 0.7 mm 6 mps 753 mmHg 89%
    11:00 +11°C° 0.4 mm 6 mps 753 mmHg 87%
    12:00 +13°C° 0.4 mm 6 mps 754 mmHg 86%
    13:00 +12°C° 0.4 mm 7 mps 754 mmHg 84%
    14:00 +11°C° 0.4 mm 6 mps 754 mmHg 85%
    15:00 +11°C° 0.4 mm 6 mps 754 mmHg 86%
    16:00 +11°C° 0.4 mm 6 mps 755 mmHg 87%
    17:00 +10°C° 0.1 mm 6 mps 755 mmHg 86%
    18:00 +10°C° 0.1 mm 6 mps 756 mmHg 86%
    19:00 +10°C° 0.1 mm 6 mps 757 mmHg 86%
    20:00 +10°C° 0 mm 6 mps 757 mmHg 86%
    21:00 +10°C° 0 mm 6 mps 758 mmHg 87%
    22:00 +10°C° 0 mm 6 mps 758 mmHg 87%
    23:00 +9°C° 0 mm 6 mps 759 mmHg 87%

    Day after tomorrow, 15 December, Saturday

    Time Temperature Precipitation Wind Pressure Humidity
    00:00 +9°C° 0 mm 6 mps 759 mmHg 88%
    01:00 +9°C° 0 mm 6 mps 759 mmHg 89%
    02:00 +9°C° 0 mm 6 mps 760 mmHg 89%
    03:00 +9°C° 0 mm 6 mps 760 mmHg 88%
    04:00 +9°C° 0 mm 6 mps 760 mmHg 88%
    05:00 +9°C° 0 mm 6 mps 760 mmHg 87%
    06:00 +8°C° 0 mm 6 mps 761 mmHg 86%
    07:00 +8°C° 0 mm 6 mps 761 mmHg 86%
    08:00 +9°C° 0 mm 6 mps 761 mmHg 81%
    09:00 +10°C° 0 mm 6 mps 762 mmHg 77%
    10:00 +12°C° 0 mm 5 mps 762 mmHg 73%
    11:00 +12°C° 0 mm 5 mps 762 mmHg 71%
    12:00 +11°C° 0 mm 6 mps 762 mmHg 69%
    13:00 +11°C° 0 mm 6 mps 763 mmHg 67%
    14:00 +11°C° 0 mm 6 mps 763 mmHg 68%
    15:00 +11°C° 0 mm 6 mps 762 mmHg 68%
    16:00 +11°C° 0 mm 6 mps 762 mmHg 69%
    17:00 +10°C° 0 mm 5 mps 763 mmHg 72%
    18:00 +9°C° 0 mm 5 mps 763 mmHg 75%
    19:00 +8°C° 0 mm 4 mps 763 mmHg 78%
    20:00 +7°C° 0 mm 4 mps 764 mmHg 79%
    21:00 +8°C° 0 mm 3 mps 764 mmHg 79%
    22:00 +8°C° 0 mm 3 mps 764 mmHg 80%
    23:00 +8°C° 0 mm 3 mps 764 mmHg 80%

    16 December, Sunday

    Time Temperature Precipitation Wind Pressure Humidity
    00:00 +8°C° 0 mm 2 mps 764 mmHg 80%
    01:00 +8°C° 0 mm 2 mps 764 mmHg 81%
    02:00 +7°C° 0 mm 2 mps 764 mmHg 81%
    03:00 +7°C° 0 mm 2 mps 764 mmHg 81%
    04:00 +7°C° 0 mm 2 mps 763 mmHg 81%
    05:00 +7°C° 0 mm 2 mps 763 mmHg 81%
    06:00 +8°C° 0 mm 2 mps 763 mmHg 81%
    07:00 +9°C° 0 mm 1 mps 763 mmHg 81%
    08:00 +9°C° 0 mm 2 mps 763 mmHg 79%
    09:00 +10°C° 0 mm 2 mps 764 mmHg 77%
    10:00 +11°C° 0 mm 3 mps 764 mmHg 75%
    11:00 +12°C° 0 mm 4 mps 763 mmHg 75%
    12:00 +14°C° 0 mm 4 mps 763 mmHg 75%
    13:00 +15°C° 0 mm 5 mps 763 mmHg 76%
    14:00 +15°C° 0 mm 5 mps 762 mmHg 78%
    15:00 +14°C° 0 mm 5 mps 762 mmHg 80%
    16:00 +14°C° 0 mm 5 mps 761 mmHg 82%
    17:00 +14°C° 0 mm 6 mps 761 mmHg 87%
    18:00 +14°C° 0 mm 6 mps 761 mmHg 91%
    19:00 +14°C° 0 mm 6 mps 761 mmHg 96%
    20:00 +14°C° 0.1 mm 6 mps 761 mmHg 96%
    21:00 +15°C° 0.1 mm 6 mps 761 mmHg 95%
    22:00 +15°C° 0.1 mm 6 mps 761 mmHg 95%
    23:00 +15°C° 0 mm 6 mps 762 mmHg 95%

    17 December, Monday

    Time Temperature Precipitation Wind Pressure Humidity
    00:00 +14°C° 0 mm 5 mps 762 mmHg 95%
    01:00 +14°C° 0 mm 5 mps 762 mmHg 95%
    02:00 +14°C° 0 mm 5 mps 762 mmHg 95%
    03:00 +13°C° 0 mm 5 mps 762 mmHg 95%
    04:00 +13°C° 0 mm 5 mps 762 mmHg 94%
    05:00 +13°C° 0 mm 5 mps 762 mmHg 94%
    06:00 +13°C° 0 mm 5 mps 762 mmHg 93%
    07:00 +13°C° 0 mm 5 mps 762 mmHg 93%
    08:00 +13°C° 0.1 mm 5 mps 763 mmHg 91%
    09:00 +13°C° 0.1 mm 5 mps 763 mmHg 90%
    10:00 +13°C° 0.1 mm 4 mps 763 mmHg 89%
    11:00 +13°C° 0.1 mm 5 mps 763 mmHg 86%
    12:00 +14°C° 0.1 mm 5 mps 763 mmHg 83%
    13:00 +14°C° 0.1 mm 6 mps 763 mmHg 81%
    14:00 +13°C° 0.1 mm 6 mps 763 mmHg 81%
    15:00 +13°C° 0.1 mm 6 mps 763 mmHg 81%
    16:00 +12°C° 0.1 mm 7 mps 763 mmHg 82%
    17:00 +11°C° 0.2 mm 7 mps 764 mmHg 84%
    18:00 +11°C° 0.2 mm 7 mps 764 mmHg 86%
    19:00 +10°C° 0.2 mm 7 mps 764 mmHg 88%
    20:00 +10°C° 0.1 mm 7 mps 765 mmHg 86%
    21:00 +10°C° 0.1 mm 8 mps 765 mmHg 85%
    22:00 +10°C° 0.1 mm 8 mps 766 mmHg 83%
    23:00 +10°C° 0 mm 8 mps 766 mmHg 83%

    18 December, Tuesday

    Time Temperature Precipitation Wind Pressure Humidity
    00:00 +10°C° 0 mm 8 mps 766 mmHg 83%
    01:00 +10°C° 0 mm 7 mps 766 mmHg 82%
    02:00 +9°C° 0 mm 7 mps 766 mmHg 83%
    03:00 +9°C° 0 mm 7 mps 766 mmHg 83%
    04:00 +9°C° 0 mm 6 mps 766 mmHg 84%
    05:00 +9°C° 0 mm 6 mps 766 mmHg 84%
    06:00 +8°C° 0 mm 5 mps 767 mmHg 85%
    07:00 +8°C° 0 mm 4 mps 767 mmHg 86%
    08:00 +10°C° 0 mm 4 mps 767 mmHg 83%
    09:00 +11°C° 0 mm 4 mps 768 mmHg 79%
    10:00 +12°C° 0 mm 3 mps 768 mmHg 76%
    11:00 +13°C° 0 mm 3 mps 768 mmHg 72%
    12:00 +15°C° 0 mm 2 mps 767 mmHg 68%
    13:00 +15°C° 0 mm 2 mps 767 mmHg 64%
    14:00 +15°C° 0 mm 2 mps 767 mmHg 66%
    15:00 +15°C° 0 mm 2 mps 767 mmHg 68%
    16:00 +14°C° 0 mm 2 mps 766 mmHg 70%
    17:00 +13°C° 0 mm 2 mps 766 mmHg 75%
    18:00 +12°C° 0 mm 2 mps 766 mmHg 80%
    19:00 +9°C° 0 mm 3 mps 766 mmHg 85%
    20:00 +9°C° 0 mm 3 mps 766 mmHg 85%
    21:00 +8°C° 0 mm 4 mps 766 mmHg 85%
    22:00 +8°C° 0 mm 4 mps 766 mmHg 85%
    23:00 +7°C° 0 mm 5 mps 766 mmHg 81%
    Show more